Regional Weather Roundup
Issued by NWS Portland, ME

Current Version | Previous Version | Text Only | Print | Product List | Glossary On
Versions: 1 2 3 4 5 6 7 8 9 10 11 12 13 14 15 16 17 18 19 20 21 22 23 24 25 26 27 28 29 30 31 32 33 34 35 36 37 38 39 40 41 42 43 44 45 46 47 48 49 50
000 ASUS41 KGYX 270410 RWRGYX WEATHER ROUNDUP FOR MAINE AND NEW HAMPSHIRE NATIONAL WEATHER SERVICE GRAY ME 1100 PM EST SUN FEB 26 2017 MEZ002-005-006-010-012-015-018-020-021-024-026-027-029-270500- MAINE CITY SKY/WX TMP DP RH WIND PRES REMARKS PORTLAND FAIR 29 10 45 CALM 30.12R SANFORD FAIR 28 13 53 S3 30.13R BAR HARBOR FAIR 25 12 58 NW6 30.08R WISCASSET FAIR 26 13 57 CALM 30.12R ROCKLAND FAIR 26 14 60 CALM 30.10R FRYEBURG FAIR 24 9 52 S3 30.08R LEWISTONAUBURN FAIR 26 11 52 CALM 30.09R AUGUSTA FAIR 24 8 50 CALM 30.08R WATERVILLE FAIR 23 11 60 W6 30.04R BANGOR FAIR 23 11 60 W5 30.07R GREENVILLE N/A 16 9 74 VRB5 29.92R MILLINOCKET FAIR 21 9 59 NW8 30.00R HOULTON FAIR 21 11 65 W8 29.94R PRESQUE ISLE FAIR 21 11 65 VRB6 29.92R FRENCHVILLE FAIR 18 8 65 W10 29.85R WCI 6 CARIBOU FAIR 21 11 65 W6 29.89R $$ NHZ002-005-008-009-011-012-014-270500- NEW HAMPSHIRE CITY SKY/WX TMP DP RH WIND PRES REMARKS PORTSMOUTH CLEAR 29 12 48 CALM 30.13R ROCHESTER FAIR 29 12 49 CALM 30.12R NASHUA FAIR 30 17 58 VRB6 30.15R MANCHESTER FAIR 31 13 47 S3 30.13R CONCORD FAIR 26 13 57 S3 30.13R LACONIA FAIR 27 14 58 MISG 30.10R PLYMOUTH FAIR 25 15 65 CALM 30.09R BERLIN FAIR 15 9 76 CALM 30.02R WHITEFIELD FAIR 17 11 77 CALM 30.04R JAFFREY FAIR 28 15 58 W6 30.11R KEENE FAIR 26 18 71 S5 30.14R LEBANON FAIR 26 16 65 S5 30.09R MT WASHINGTON FOG 1 1 100 W44 N/A VSB 0 WCI -28 $$ VTZ005-007-008-270500- VERMONT CITY SKY/WX TMP DP RH WIND PRES REMARKS ST JOHNSBURY N/A 19 15 84 MISG 30.05R MONTPELIER FAIR 26 15 63 VRB5 30.07R BURLINGTON FAIR 28 17 63 S8 30.08R $$ MAZ007-012-024-CTZ003-RIZ002-NYZ038-NYZ072-270500- SOUTHERN NEW ENGLAND AND NY CITY SKY/WX TMP DP RH WIND PRES REMARKS BOSTON FAIR 34 16 47 W12 30.18R WORCESTER FAIR 27 15 61 W7 30.12R NANTUCKET FAIR 34 17 50 W9 30.19R PROVIDENCE FAIR 32 16 51 W7 30.21R HARTFORD FAIR 29 18 63 S6 30.20R ALBANY FAIR 29 19 66 S5 30.18R NEW YORK CITY FAIR 39 15 37 W15 30.25R $$ ANZ081-ANZ082-ANZ150-NHZ014-MEZ023>029-270500- COASTAL MARINE OBSERVATIONS STATION/POSITION TIME TEMP WIND PRES WAVE AIR SEA DIR/SP/G HT/PER (UTC) (F) (DEG/KT/KT) (MB) (FT/S) MOUNT DESERT ROC 0400 29 1018.2R MATINICUS ROCK 0300 31 310/ 25/ 27 1017.6R ISLE OF SHOALS 0300 34 270/ 15/ 18 1019.7R JEFFREYS LEDGE 0306 43 N/A 5/ 5 CASHES LEDGE BUO 0350 33 42 1018.7R 7/ 7 GEORGES BANK BUO 0350 43 44 1018.4R 10/ 8 $$ .............KEY.............. WCI - WIND CHILL TC - TEMPERATURE IN CELSIUS VSB - VISIBILITY IN MILES HX - HEAT INDEX FAIR- INDICATES FEW OR NO CLOUDS BELOW 12,000 FT, WITH NO SIGNIFICANT WEATHER AND/OR OBSTRUCTIONS TO VISIBILITY.

USA.gov is the U.S. government's official web portal to all federal, state and local government web resources and services.